FW4027 Weather Reports


time (UTC)temp
F
wind
direction
speed
knots
gust
knots
rain 1hr
in
rain 24hr
in
rain mn
in
humidity
%
barometer
mb
20260507160329 72 169 1.7 2.6 0.00 0.00 0.00 48 1018.4
20260507155607 72 175 1.7 2.6 0.00 0.00 0.00 46 1018.2
20260507155104 72 192 0.0 2.6 0.00 0.00 0.00 43 1018.3
20260507154606 71 0 0.0 1.7 0.00 0.00 0.00 42 1018.1
20260507154107 71 252 0.0 1.7 0.00 0.00 0.00 43 1018.1
20260507153606 71 252 0.0 2.6 0.00 0.00 0.00 45 1018.0
20260507153108 71 252 0.9 4.3 0.00 0.00 0.00 46 1018.1
20260507152605 71 210 0.9 4.3 0.00 0.00 0.00 47 1018.1
20260507152106 71 195 3.5 4.3 0.00 0.00 0.00 48 1018.1
20260507151607 72 221 1.7 4.3 0.00 0.00 0.00 48 1018.2
20260507151106 72 161 2.6 4.3 0.00 0.00 0.00 48 1018.3
20260507150604 72 183 1.7 5.2 0.00 0.00 0.00 47 1018.3
20260507150105 72 196 1.7 5.2 0.00 0.00 0.00 45 1018.2
20260507145605 71 207 3.5 5.2 0.00 0.00 0.00 43 1018.3
20260507145106 71 192 3.5 5.2 0.00 0.00 0.00 43 1018.2
20260507144833 72 243 2.6 5.2 0.00 0.00 0.00 42 1018.1
20260507144331 72 175 3.5 6.1 0.00 0.00 0.00 42 1018.2
20260507143604 72 228 4.3 6.1 0.00 0.00 0.00 42 1018.3
20260507143106 72 0 3.5 6.1 0.00 0.00 0.00 44 1018.2
20260507142605 72 220 1.7 6.1 0.00 0.00 0.00 45 1018.1
20260507142330 71 238 3.5 6.1 0.00 0.00 0.00 45 1018.2
20260507141606 71 182 2.6 6.1 0.00 0.00 0.00 45 1018.3
20260507141104 71 0 4.3 7.8 0.00 0.00 0.00 46 1018.3
20260507140605 70 257 2.6 7.8 0.00 0.00 0.00 50 1018.3
20260507140104 70 235 3.5 6.1 0.00 0.00 0.00 51 1018.2
20260507135826 69 233 3.5 6.1 0.00 0.00 0.00 52 1018.2
20260507135105 70 0 2.6 6.1 0.00 0.00 0.00 54 1018.3
20260507134604 70 0 2.6 8.7 0.00 0.00 0.00 55 1018.4
20260507134106 70 223 5.2 8.7 0.00 0.00 0.00 54 1018.5
20260507133604 71 190 2.6 6.1 0.00 0.00 0.00 55 1018.6
20260507133103 71 200 4.3 7.8 0.00 0.00 0.00 53 1018.6
20260507132603 71 214 4.3 8.7 0.00 0.00 0.00 51 1018.8
20260507132104 72 0 5.2 8.7 0.00 0.00 0.00 50 1018.7
20260507131604 72 0 2.6 8.7 0.00 0.00 0.00 50 1018.5
20260507131103 72 257 5.2 8.7 0.00 0.00 0.00 50 1018.3
20260507130605 72 166 3.5 7.8 0.00 0.00 0.00 50 1018.2
20260507125604 72 207 5.2 8.7 0.00 0.00 0.00 51 1018.6
20260507125102 72 0 5.2 8.7 0.00 0.00 0.00 52 1018.7
20260507124603 72 0 3.5 7.8 0.00 0.00 0.00 52 1018.8
20260507124102 72 0 4.3 7.8 0.00 0.00 0.00 51 1018.8
20260507123603 72 0 3.5 9.6 0.00 0.00 0.00 52 1018.9
20260507123103 72 185 5.2 9.6 0.00 0.00 0.00 50 1019.1
20260507122603 73 154 2.6 7.8 0.00 0.00 0.00 50 1019.0
20260507122104 73 172 1.7 8.7 0.00 0.00 0.00 51 1019.1
20260507122053 72 0 3.5 8.7 0.00 0.00 0.00 51 1018.9
20260507121101 72 192 5.2 8.7 0.00 0.00 0.00 51 1019.0
20260507120826 72 199 4.3 10.4 0.00 0.00 0.00 53 1019.0
20260507120103 72 0 4.3 10.4 0.00 0.00 0.00 53 1019.1
20260507120052 72 0 5.2 9.6 0.00 0.00 0.00 54 1019.0
20260507115103 72 220 4.3 10.4 0.00 0.00 0.00 54 1019.0
20260507114601 71 0 3.5 10.4 0.00 0.00 0.00 54 1018.9
20260507114101 71 0 3.5 9.6 0.00 0.00 0.00 53 1018.8
20260507113823 71 241 5.2 9.6 0.00 0.00 0.00 52 1018.8
20260507113100 71 151 3.5 9.6 0.00 0.00 0.00 51 1018.8
20260507112602 72 0 5.2 9.6 0.00 0.00 0.00 51 1018.8
20260507112334 72 0 5.2 9.6 0.00 0.00 0.00 51 1018.8
20260507111602 71 0 4.3 9.6 0.00 0.00 0.00 51 1018.8
20260507111100 71 0 5.2 9.6 0.00 0.00 0.00 52 1018.8
20260507110601 71 0 4.3 10.4 0.00 0.00 0.00 52 1018.7
20260507110100 71 0 7.0 11.3 0.00 0.00 0.00 51 1018.8
20260507105600 70 178 6.1 11.3 0.00 0.00 0.00 50 1018.7
20260507105100 71 0 7.8 11.3 0.00 0.00 0.00 49 1018.8
20260507104600 71 0 6.1 11.3 0.00 0.00 0.00 51 1018.8
20260507104100 72 0 6.1 9.6 0.00 0.00 0.00 50 1018.8
20260507103600 72 0 2.6 8.7 0.00 0.00 0.00 51 1018.8
20260507103059 72 0 5.2 8.7 0.00 0.00 0.00 51 1018.6
20260507102559 71 186 4.3 9.6 0.00 0.00 0.00 52 1018.6
20260507102322 71 186 6.1 9.6 0.00 0.00 0.00 50 1018.6
20260507101559 71 203 4.3 9.6 0.00 0.00 0.00 50 1018.6
20260507101058 71 0 4.3 12.2 0.00 0.00 0.00 49 1018.7
20260507100824 71 185 5.2 12.2 0.00 0.00 0.00 51 1018.8
20260507100058 71 165 4.3 9.6 0.00 0.00 0.00 51 1018.8
20260507095559 71 228 5.2 9.6 0.00 0.00 0.00 50 1018.9
20260507095328 71 221 4.3 10.4 0.00 0.00 0.00 49 1019.0
20260507094559 71 186 4.3 10.4 0.00 0.00 0.00 50 1019.1
20260507094058 71 0 4.3 9.6 0.00 0.00 0.00 51 1019.1
20260507093817 71 0 5.2 10.4 0.00 0.00 0.00 48 1019.0
20260507093057 70 0 6.1 10.4 0.00 0.00 0.00 48 1019.1
20260507092558 70 0 5.2 10.4 0.00 0.00 0.00 51 1019.1
20260507092058 69 197 4.3 9.6 0.00 0.00 0.00 52 1019.2
20260507091558 69 0 7.0 10.4 0.00 0.00 0.00 52 1019.2
20260507091057 69 0 6.1 10.4 0.00 0.00 0.00 53 1019.4
20260507090557 68 0 5.2 10.4 0.00 0.00 0.00 53 1019.4
20260507090326 69 0 6.1 9.6 0.00 0.00 0.00 54 1019.4
20260507085558 69 0 5.2 9.6 0.00 0.00 0.00 54 1019.4
20260507085057 69 0 5.2 9.6 0.00 0.00 0.00 54 1019.3
20260507084558 69 162 6.1 9.6 0.00 0.00 0.00 54 1019.3
20260507084046 69 200 4.3 9.6 0.00 0.00 0.00 55 1019.3
20260507083543 70 176 3.5 10.4 0.00 0.00 0.00 55 1019.2
20260507083314 69 231 4.3 10.4 0.00 0.00 0.00 56 1019.2
20260507082541 69 210 2.6 10.4 0.00 0.00 0.00 55 1019.2
20260507082309 69 0 4.3 9.6 0.00 0.00 0.00 55 1019.0
20260507081539 69 192 3.5 9.6 0.00 0.00 0.00 55 1018.9
20260507081303 69 169 4.3 9.6 0.00 0.00 0.00 56 1018.9
20260507080752 69 204 3.5 9.6 0.00 0.00 0.00 56 1018.9
20260507080036 69 0 4.3 9.6 0.00 0.00 0.00 56 1018.9
20260507075533 68 0 4.3 9.6 0.00 0.00 0.00 55 1019.0
20260507075031 68 0 4.3 9.6 0.00 0.00 0.00 55 1018.9
20260507074531 68 0 4.3 9.6 0.00 0.00 0.00 56 1019.0
20260507074032 68 0 5.2 9.6 0.00 0.00 0.00 56 1019.1
20260507073536 68 0 5.2 9.6 0.00 0.00 0.00 56 1019.0
20260507073024 68 0 4.3 9.6 0.00 0.00 0.00 57 1019.0
20260507072523 68 220 4.3 9.6 0.00 0.00 0.00 57 1018.8
20260507072024 68 0 5.2 9.6 0.00 0.00 0.00 57 1018.8
20260507071514 69 0 4.3 9.6 0.00 0.00 0.00 57 1018.8
20260507071014 69 0 3.5 8.7 0.00 0.00 0.00 57 1018.7
20260507070732 69 0 4.3 8.7 0.00 0.00 0.00 57 1018.6
20260507070014 69 179 5.2 9.6 0.00 0.00 0.00 56 1018.5
20260507065511 69 195 3.5 9.6 0.00 0.00 0.00 56 1018.3
20260507065013 69 0 3.5 8.7 0.00 0.00 0.00 56 1018.3
20260507064512 69 237 5.2 6.1 0.00 0.00 0.00 56 1018.0
20260507064009 69 179 3.5 8.7 0.00 0.00 0.00 56 1018.0
20260507063507 68 179 3.5 8.7 0.00 0.00 0.00 56 1018.0
20260507063006 68 196 3.5 7.8 0.00 0.00 0.00 55 1018.0
20260507062505 68 196 3.5 7.8 0.00 0.00 0.00 55 1018.0
20260507062003 68 180 1.7 6.1 0.00 0.00 0.00 56 1018.0
20260507061500 68 0 3.5 6.1 0.00 0.00 0.00 56 1017.9
20260507061000 68 186 1.7 5.2 0.00 0.00 0.00 56 1017.8
20260507060723 68 220 3.5 5.2 0.00 0.00 0.00 56 1017.9
20260507055958 67 226 1.7 6.1 0.00 0.00 0.00 56 1018.0
20260507055456 68 186 1.7 6.1 0.00 0.00 0.00 56 1017.9
20260507054953 67 231 1.7 5.2 0.00 0.00 0.00 56 1017.9
20260507054454 67 188 0.9 4.3 0.00 0.00 0.00 56 1017.9
20260507053953 66 0 2.6 3.5 0.00 0.00 0.00 56 1017.9
20260507053454 65 200 1.7 3.5 0.00 0.00 0.00 56 1018.0
20260507052953 65 182 0.9 2.6 0.00 0.00 0.00 56 1018.0
20260507052943 63 169 1.7 4.3 0.00 0.00 0.00 57 1017.9
20260507051953 62 180 0.0 4.3 0.00 0.00 0.00 57 1018.0
20260507051451 62 185 1.7 3.5 0.00 0.00 0.00 58 1017.9
20260507050952 61 31 0.0 0.0 0.00 0.00 0.00 60 1017.8
20260507050453 60 4 0.0 1.7 0.00 0.00 0.00 61 1017.7
20260507045952 60 4 0.9 2.6 0.00 0.00 0.00 61 1017.7
20260507045451 59 0 1.7 2.6 0.00 0.00 0.00 61 1017.7
20260507044951 58 0 1.7 3.5 0.00 0.00 0.00 62 1017.7
20260507044715 57 0 1.7 4.3 0.00 0.00 0.00 62 1017.6
20260507043951 57 338 2.6 5.2 0.00 0.00 0.00 63 1017.7
20260507043719 57 0 4.3 5.2 0.00 0.00 0.00 64 1017.6
20260507042952 57 0 2.6 4.3 0.00 0.00 0.00 64 1017.6
20260507042452 57 343 1.7 3.5 0.00 0.00 0.00 64 1017.7
20260507041952 57 316 1.7 2.6 0.00 0.00 0.00 64 1017.7
20260507041451 56 319 1.7 3.5 0.00 0.00 0.00 64 1017.6
20260507040950 56 316 2.6 3.5 0.00 0.00 0.00 64 1017.6
20260507040450 55 0 1.7 2.6 0.00 0.00 0.00 63 1017.6
20260507035950 55 317 1.7 2.6 0.00 0.00 0.00 64 1017.7
20260507035450 55 321 0.9 2.6 0.00 0.00 0.00 63 1017.7
20260507034950 55 323 0.0 2.6 0.00 0.00 0.00 63 1017.6
20260507034451 54 0 1.7 2.6 0.00 0.00 0.00 63 1017.6
20260507034213 55 303 1.7 2.6 0.00 0.00 0.00 63 1017.4
20260507033449 55 310 0.0 2.6 0.00 0.00 0.00 63 1017.4
20260507032949 55 306 0.9 2.6 0.00 0.00 0.00 63 1017.3
20260507032449 54 300 1.7 2.6 0.00 0.00 0.00 63 1017.2
20260507031950 54 313 0.0 2.6 0.00 0.00 0.00 63 1017.2
20260507031450 54 312 1.7 3.5 0.00 0.00 0.00 63 1017.3
20260507030950 53 0 2.6 3.5 0.00 0.00 0.00 62 1017.1
20260507030449 53 312 1.7 2.6 0.00 0.00 0.00 62 1017.0
20260507030211 54 316 0.9 2.6 0.00 0.00 0.00 62 1017.0
20260507025449 53 317 1.7 2.6 0.00 0.00 0.00 62 1017.0
20260507024950 54 327 0.9 1.7 0.00 0.00 0.00 62 1016.9
20260507024713 54 327 0.0 2.6 0.00 0.00 0.00 62 1016.7
20260507024429 54 323 1.7 3.5 0.00 0.00 0.00 62 1016.6
20260507023448 54 0 2.6 3.5 0.00 0.00 0.00 62 1016.7
20260507022948 54 319 1.7 3.5 0.00 0.00 0.00 62 1016.6
20260507022710 54 0 1.7 3.5 0.00 0.00 0.00 62 1016.6
20260507021950 54 306 1.7 3.5 0.00 0.00 0.00 62 1016.7
20260507021449 54 334 0.9 2.6 0.00 0.00 0.00 62 1016.6
20260507021211 54 0 1.7 3.5 0.00 0.00 0.00 62 1016.7
20260507020449 54 0 2.6 3.5 0.00 0.00 0.00 62 1016.7
20260507015948 54 331 0.9 3.5 0.00 0.00 0.00 62 1016.7
20260507015448 54 0 1.7 3.5 0.00 0.00 0.00 62 1016.7
20260507014948 54 305 2.6 3.5 0.00 0.00 0.00 62 1016.6
20260507014448 53 314 2.6 3.5 0.00 0.00 0.00 62 1016.6
20260507014433 53 0 1.7 3.5 0.00 0.00 0.00 62 1016.8
20260507013448 53 0 2.6 3.5 0.00 0.00 0.00 62 1016.7
20260507012948 53 0 2.6 3.5 0.00 0.00 0.00 62 1016.6
20260507012719 53 306 1.7 2.6 0.00 0.00 0.00 62 1016.7
20260507012212 53 306 1.7 2.6 0.00 0.00 0.00 63 1016.7
20260507011710 54 0 1.7 3.5 0.00 0.00 0.00 63 1016.6
20260507010946 54 306 1.7 3.5 0.00 0.00 0.00 62 1016.5
20260507010447 54 321 1.7 3.5 0.00 0.00 0.00 63 1016.5
20260507005946 54 316 2.6 3.5 0.00 0.00 0.00 63 1016.5
20260507005446 54 0 2.6 3.5 0.00 0.00 0.00 62 1016.5
20260507004947 55 0 1.7 2.6 0.00 0.00 0.00 63 1016.5
20260507004446 55 334 0.9 3.5 0.00 0.00 0.00 63 1016.5
20260507003945 56 334 1.7 4.3 0.00 0.00 0.00 63 1016.5
20260507003445 56 0 3.5 4.3 0.00 0.00 0.00 63 1016.5
20260507002946 56 0 2.6 3.5 0.00 0.00 0.00 63 1016.3
20260507002705 56 0 2.6 3.5 0.00 0.00 0.00 63 1016.4
20260507002212 56 316 1.7 4.3 0.00 0.00 0.00 63 1016.5
20260507001719 56 0 2.6 4.3 0.00 0.00 0.00 63 1016.6
20260507001213 56 0 2.6 3.5 0.00 0.00 0.00 63 1016.5
20260507000445 57 0 2.6 3.5 0.00 0.00 0.00 63 1016.5
20260506235944 57 0 2.6 3.5 0.00 0.00 0.00 63 1016.5
20260506235445 57 0 1.7 3.5 0.00 0.00 0.00 63 1016.6
20260506234945 57 310 2.6 3.5 0.00 0.00 0.00 63 1016.5
20260506234444 57 320 2.6 4.3 0.00 0.00 0.00 63 1016.6
20260506233944 57 313 2.6 4.3 0.00 0.00 0.00 63 1016.7
20260506233445 57 0 2.6 4.3 0.00 0.00 0.00 63 1016.8
20260506233210 57 317 1.7 2.6 0.00 0.00 0.00 63 1016.9
20260506232444 57 321 2.6 2.6 0.00 0.00 0.00 63 1016.9
20260506231944 58 327 1.7 2.6 0.00 0.00 0.00 63 1016.9
20260506231444 57 316 0.0 0.0 0.00 0.00 0.00 63 1017.0
20260506230943 57 316 0.0 0.0 0.00 0.00 0.00 63 1017.0
20260506230444 58 316 0.0 1.7 0.00 0.00 0.00 63 1017.0
20260506225944 58 316 0.0 2.6 0.00 0.00 0.00 63 1017.0
20260506225443 58 316 1.7 2.6 0.00 0.00 0.00 63 1017.0
20260506224944 58 0 0.9 2.6 0.00 0.00 0.00 63 1017.2
20260506224445 58 290 1.7 2.6 0.00 0.00 0.00 63 1017.1
20260506223943 58 172 0.0 1.7 0.00 0.00 0.00 63 1017.3
20260506223444 58 172 0.9 1.7 0.00 0.00 0.00 63 1017.3
20260506222943 57 172 0.0 0.0 0.00 0.00 0.00 63 1017.3
20260506222442 57 172 0.0 0.0 0.00 0.00 0.00 63 1017.3
20260506221944 58 172 0.0 0.0 0.00 0.00 0.00 63 1017.3
20260506221441 58 172 0.0 0.0 0.00 0.00 0.00 63 1017.4
20260506220941 58 172 0.0 0.0 0.00 0.00 0.00 63 1017.5
20260506220440 58 171 0.0 0.0 0.00 0.00 0.00 63 1017.5
20260506215941 58 171 0.0 0.0 0.00 0.00 0.00 63 1017.4
20260506215441 58 172 0.0 0.0 0.00 0.00 0.00 63 1017.4
20260506214940 58 172 0.0 0.0 0.00 0.00 0.00 63 1017.4
20260506214709 58 172 0.0 0.0 0.00 0.00 0.00 63 1017.4
20260506213941 58 172 0.0 0.0 0.00 0.00 0.00 63 1017.5
20260506213440 58 172 0.0 0.0 0.00 0.00 0.00 62 1017.4
20260506212939 58 172 0.0 0.0 0.00 0.00 0.00 62 1017.5
20260506212440 59 172 0.0 0.0 0.00 0.00 0.00 63 1017.5
20260506212207 59 172 0.0 0.0 0.00 0.00 0.00 63 1017.6
20260506211440 59 171 0.0 0.0 0.00 0.00 0.00 63 1017.6
20260506210939 59 171 0.0 0.0 0.00 0.00 0.00 63 1017.5
20260506210440 59 171 0.0 0.0 0.00 0.00 0.00 63 1017.5
20260506205940 59 171 0.0 0.0 0.00 0.00 0.00 62 1017.6
20260506205439 59 171 0.0 0.0 0.00 0.00 0.00 62 1017.6
20260506204940 59 171 0.0 0.0 0.00 0.00 0.00 62 1017.5
20260506204439 59 171 0.0 0.0 0.00 0.00 0.00 62 1017.6
20260506203939 59 171 0.0 0.0 0.00 0.00 0.00 62 1017.5
20260506203700 60 171 0.0 0.0 0.00 0.00 0.00 62 1017.5
20260506203207 60 171 0.0 0.0 0.00 0.00 0.00 62 1017.4
20260506202441 60 171 0.0 0.0 0.00 0.00 0.00 62 1017.5
20260506202436 60 171 0.0 0.0 0.00 0.00 0.00 62 1017.4
20260506201440 60 171 0.0 0.0 0.00 0.00 0.00 62 1017.5
20260506200938 60 171 0.0 0.0 0.00 0.00 0.00 62 1017.4
20260506200437 60 171 0.0 0.0 0.00 0.00 0.00 62 1017.3
20260506195938 61 171 0.0 0.0 0.00 0.00 0.00 62 1017.4
20260506195437 61 171 0.0 0.9 0.00 0.00 0.00 62 1017.2
20260506195203 62 171 0.0 1.7 0.00 0.00 0.00 62 1017.3
20260506194439 62 171 0.9 1.7 0.00 0.00 0.00 62 1017.3
20260506193939 62 171 0.0 2.6 0.00 0.00 0.00 62 1017.2
20260506193437 62 169 0.9 2.6 0.00 0.00 0.00 62 1017.2
20260506192938 62 172 0.0 2.6 0.00 0.00 0.00 62 1017.2
20260506192436 63 171 0.9 2.6 0.00 0.00 0.00 62 1017.3
20260506191937 62 171 0.0 0.9 0.00 0.00 0.00 62 1017.2
20260506191436 63 172 0.0 0.9 0.00 0.00 0.00 62 1017.1
20260506190936 63 172 0.0 0.0 0.00 0.00 0.00 61 1017.1
20260506190437 64 172 0.0 0.0 0.00 0.00 0.00 62 1017.0
20260506185936 64 172 0.0 1.7 0.00 0.00 0.00 62 1017.0
20260506185437 64 172 0.0 2.6 0.00 0.00 0.00 61 1016.9
20260506184936 65 188 0.0 2.6 0.00 0.00 0.00 61 1016.9
20260506184436 65 0 0.0 1.7 0.00 0.00 0.00 61 1016.7
20260506183933 65 179 0.0 1.7 0.00 0.00 0.00 61 1016.7
20260506183433 65 179 0.9 3.5 0.00 0.00 0.00 61 1016.6
20260506182932 65 185 0.9 3.5 0.00 0.00 0.00 61 1016.5
20260506182433 65 185 1.7 3.5 0.00 0.00 0.00 61 1016.4
20260506181933 65 175 0.9 2.6 0.00 0.00 0.00 60 1016.4
20260506181432 66 171 0.0 3.5 0.00 0.00 0.00 60 1016.3
20260506181420 66 172 0.9 3.5 0.00 0.00 0.00 59 1016.2
20260506180653 66 190 0.9 2.6 0.00 0.00 0.00 59 1016.1
20260506175933 66 192 0.0 3.5 0.00 0.00 0.00 59 1016.1
20260506175432 67 196 1.7 4.3 0.00 0.00 0.00 59 1016.0
20260506174934 67 221 0.9 4.3 0.00 0.00 0.00 59 1016.0
20260506174704 67 230 0.9 2.6 0.00 0.00 0.00 58 1016.0
20260506173909 67 189 0.0 2.6 0.00 0.00 0.00 58 1015.8
20260506173634 67 192 1.7 2.6 0.00 0.00 0.00 58 1015.9
20260506172905 67 190 0.9 2.6 0.00 0.00 0.00 57 1015.9
20260506172405 66 202 0.9 2.6 0.00 0.00 0.00 57 1015.9
20260506171906 66 203 0.9 3.5 0.00 0.00 0.00 56 1015.9
20260506171405 66 230 0.9 4.3 0.00 0.00 0.00 56 1015.8
20260506170858 67 214 3.5 5.2 0.00 0.00 0.00 55 1015.8
20260506170358 67 244 4.3 5.2 0.00 0.00 0.00 55 1015.8
20260506170115 67 0 3.5 5.2 0.00 0.00 0.00 54 1015.9
20260506165353 67 0 2.6 4.3 0.00 0.00 0.00 53 1015.8
20260506165114 67 210 0.9 4.3 0.00 0.00 0.00 52 1015.9
20260506164620 67 223 2.6 4.3 0.00 0.00 0.00 51 1015.9
20260506163852 68 0 1.7 4.3 0.00 0.00 0.00 50 1016.0
20260506163350 67 219 1.7 4.3 0.00 0.00 0.00 48 1016.0
20260506162851 67 203 2.6 4.3 0.00 0.00 0.00 48 1016.0
20260506162351 68 0 3.5 4.3 0.00 0.00 0.00 49 1016.0
20260506161851 68 214 0.9 3.5 0.00 0.00 0.00 50 1015.9
20260506161351 68 195 0.9 4.3 0.00 0.00 0.00 50 1016.0
20260506160847 68 228 1.7 5.2 0.00 0.00 0.00 50 1016.0
20260506160347 69 224 2.6 5.2 0.00 0.00 0.00 49 1016.0